This is the latest recevied weather packets stored in our database for station/object KD9JJA. If no packets are shown the sender has not sent any weather packets the latest 10 day(s).
| Time | Temp. | Humidity | Pressure | Rain* | Wind** | Luminosity | Snow |
|---|---|---|---|---|---|---|---|
| 1777872094 | 13.89° C | 67% | 1012.5 hPa | 0 mm | - | 0 W/m² | - |
| 1777871790 | 13.89° C | 65% | 1012.5 hPa | 0 mm | - | 0 W/m² | - |
| 1777871487 | 14.44° C | 68% | 1012.5 hPa | 0 mm | - | 0 W/m² | - |
| 1777871184 | 13.89° C | 66% | 1012.5 hPa | 0 mm | - | 0 W/m² | - |
| 1777870881 | 14.44° C | 66% | 1012.5 hPa | 0 mm | - | 0 W/m² | - |
| 1777870578 | 14.44° C | 63% | 1012.5 hPa | 0 mm | - | 0 W/m² | - |
| 1777870273 | 14.44° C | 63% | 1012.6 hPa | 0 mm | - | 0 W/m² | - |
| 1777869971 | 15° C | 65% | 1012.7 hPa | 0 mm | - | 0 W/m² | - |
| 1777869667 | 15° C | 64% | 1012.7 hPa | 0 mm | - | 0 W/m² | - |
| 1777869364 | 15° C | 63% | 1012.5 hPa | 0 mm | - | 0 W/m² | - |
| 1777869062 | 15° C | 64% | 1012.8 hPa | 0 mm | - | 0 W/m² | - |
| 1777868759 | 15° C | 62% | 1012.9 hPa | 0 mm | - | 0 W/m² | - |
| 1777868455 | 15° C | 61% | 1012.8 hPa | 0 mm | - | 0 W/m² | - |
| 1777868151 | 15° C | 62% | 1012.7 hPa | 0 mm | - | 0 W/m² | - |
| 1777867848 | 15° C | 63% | 1012.7 hPa | 0 mm | - | 0 W/m² | - |
| 1777867545 | 15° C | 61% | 1012.8 hPa | 0 mm | - | 0 W/m² | - |
| 1777867242 | 15° C | 60% | 1012.7 hPa | 0 mm | - | 0 W/m² | - |
| 1777866938 | 15° C | 61% | 1012.8 hPa | 0 mm | - | 0 W/m² | - |
| 1777866635 | 15° C | 61% | 1012.8 hPa | 0 mm | - | 0 W/m² | - |
| 1777866333 | 15° C | 64% | 1013.1 hPa | 0 mm | - | 0 W/m² | - |
| 1777866029 | 15° C | 62% | 1013 hPa | 0 mm | - | 0 W/m² | - |
| 1777865727 | 15° C | 62% | 1013.1 hPa | 0 mm | - | 0 W/m² | - |
| 1777865425 | 15° C | 61% | 1013.1 hPa | 0 mm | - | 0 W/m² | - |
| 1777865121 | 15° C | 63% | 1013.2 hPa | 0 mm | - | 0 W/m² | - |
| 1777864818 | 15° C | 60% | 1013.3 hPa | 0 mm | - | 0 W/m² | - |
* Rain latest hour (hover to see other rain measurements)
** Current wind speed in m/s (hover to see current wind gust speed)